Dubrovnik, Croatia

6:32 AM CET on December 13, 2017 (GMT +0100)
Cilipi

Weather History for LDDU - December, 2017

Change the Weather History Date:

Tuesday, December 5, 2017

  Actual Average (LYTV) Record (LYTV)
Temperature  
Mean Temperature 45 °F -  
Max Temperature 49 °F 56 °F 62 °F (2000)
Min Temperature 41 °F 39 °F 28 °F (2016)
Degree Days  
Heating Degree Days 20    
Moisture  
Dew Point 22 °F    
Average Humidity 40    
Maximum Humidity 49    
Minimum Humidity 22    
Precipitation  
Precipitation 0.00 in - - ()
Sea Level Pressure  
Sea Level Pressure 30.40 in    
Wind  
Wind Speed 15 mph ()    
Max Wind Speed 24 mph    
Max Gust Speed 40 mph    
Visibility 9.4 miles    
Events      
Averages and records for this station are not official NWS values.
T = Trace of Precipitation, MM = Missing Value Source: Averaged Metar Reports

Daily Weather History Graph

Daily Weather History Graph

Search for Another Location

Airport or City:

Trip Planner

Search our weather history database for the weather conditions in past years. The results will help you decide how hot, cold, wet, or windy it might be!

Date:

Astronomy

Dec. 05, 2017 Rise Set
Actual Time 7:01 AM CET 4:13 PM CET
Civil Twilight 6:29 AM CET 4:45 PM CET
Nautical Twilight 5:54 AM CET 5:20 PM CET
Astronomical Twilight 5:20 AM CET 5:54 PM CET
Moon 6:26 PM CET (12/5) 8:35 AM CET (12/5)
Length of Visible Light 10h 16m
Length of Day
9h 12m
Waning Gibbous, 95% of the Moon is Illuminated
Dec 5
Waning Gibbous
Dec 10
Last Quarter
Dec 18
New
Dec 26
First Quarter
Jan 2
Full

Hourly Weather History & Observations

Time (CET) Temp. Windchill Dew Point Humidity Pressure Visibility Wind Dir Wind Speed Gust Speed Precip Events Conditions
12:00 AM 44.6 °F 36.6 °F 23.0 °F 43% 30.27 in - NNE 19.6 mph - N/A   Clear
12:30 AM 42.8 °F 34.5 °F 23.0 °F 46% 30.27 in - NNE 18.4 mph - N/A   Clear
1:00 AM 45 °F - 22 °F 28% 30.30 in 19 mi NNE 20.1 mph - -  
1:00 AM 44.6 °F 36.4 °F 23.0 °F 43% 30.27 in - NNE 20.7 mph 32.2 mph N/A   Clear
1:30 AM 44.6 °F 39.2 °F 23.0 °F 43% 30.27 in - Variable 10.4 mph 23.0 mph N/A   Clear
2:00 AM 44.6 °F 37.2 °F 23.0 °F 43% 30.30 in - NNE 17.3 mph 32.2 mph N/A   Clear
2:30 AM 44.6 °F 37.8 °F 23.0 °F 43% 30.30 in - North 15.0 mph - N/A   Clear
3:00 AM 42.8 °F 34.3 °F 23.0 °F 46% 30.30 in - NNE 19.6 mph - N/A   Clear
3:30 AM 44.6 °F 36.1 °F 23.0 °F 43% 30.30 in - NNE 21.9 mph - N/A   Clear
4:00 AM 44 °F - 23 °F 31% 30.33 in 19 mi NNE 22.4 mph - -  
4:00 AM 42.8 °F 33.5 °F 23.0 °F 46% 30.30 in - NNE 23.0 mph - N/A   Clear
4:30 AM 42.8 °F 33.5 °F 23.0 °F 46% 30.30 in - NNE 23.0 mph - N/A   Clear
5:00 AM 42.8 °F 33.3 °F 23.0 °F 46% 30.30 in - NNE 24.2 mph - N/A   Clear
5:30 AM 42.8 °F 33.3 °F 23.0 °F 46% 30.33 in - NNE 24.2 mph - N/A   Clear
6:00 AM 42.8 °F 34.5 °F 23.0 °F 46% 30.33 in - NNE 18.4 mph - N/A   Clear
6:30 AM 42.8 °F 34.5 °F 23.0 °F 46% 30.33 in - NNE 18.4 mph - N/A   Clear
7:00 AM 42 °F - 23 °F 34% 30.37 in 25 mi North 15.7 mph - -   Scattered Clouds
7:00 AM 42.8 °F 34.8 °F 23.0 °F 46% 30.33 in - NNE 17.3 mph - N/A   Clear
7:30 AM 42.8 °F 34.8 °F 23.0 °F 46% 30.36 in - North 17.3 mph - N/A   Clear
8:00 AM 44.6 °F 37.8 °F 23.0 °F 43% 30.36 in - Variable 15.0 mph 40.3 mph N/A   Clear
8:30 AM 44.6 °F 37.2 °F 23.0 °F 43% 30.39 in - NNW 17.3 mph 29.9 mph N/A   Clear
9:00 AM 44.6 °F 37.4 °F 23.0 °F 43% 30.39 in - NNW 16.1 mph 28.8 mph N/A   Clear
9:30 AM 46.4 °F 41.5 °F 23.0 °F 40% 30.39 in - NNW 10.4 mph - N/A   Clear
10:00 AM 47 °F - 22 °F 25% 30.44 in 31 mi NNW 8.9 mph - -  
10:00 AM 46.4 °F 41.9 °F 23.0 °F 40% 30.42 in - NNW 9.2 mph - N/A   Clear
10:30 AM 48.2 °F - 24.8 °F 40% 30.42 in 6.2 mi Variable 8.1 mph 20.7 mph N/A   Partly Cloudy
11:00 AM 46.4 °F 40.1 °F 21.2 °F 37% 30.42 in 6.2 mi NNW 15.0 mph - N/A   Partly Cloudy
11:30 AM 48.2 °F - 23.0 °F 37% 30.42 in 6.2 mi North 15.0 mph - N/A   Partly Cloudy
12:00 PM 46.4 °F 40.4 °F 21.2 °F 37% 30.42 in 6.2 mi North 13.8 mph - N/A   Partly Cloudy
12:30 PM 48.2 °F - 21.2 °F 34% 30.39 in 6.2 mi NW 15.0 mph - N/A   Partly Cloudy
1:00 PM 47 °F - 20 °F 22% 30.43 in 31 mi NW 17.9 mph - -   Scattered Clouds
1:00 PM 48.2 °F - 21.2 °F 34% 30.39 in 6.2 mi NW 19.6 mph - N/A   Partly Cloudy
1:30 PM 48.2 °F - 23.0 °F 37% 30.39 in 6.2 mi NW 15.0 mph - N/A   Partly Cloudy
2:00 PM 46.4 °F 40.1 °F 21.2 °F 37% 30.39 in 6.2 mi NW 15.0 mph - N/A   Partly Cloudy
2:30 PM 46.4 °F 39.2 °F 21.2 °F 37% 30.42 in 6.2 mi NW 18.4 mph - N/A   Partly Cloudy
3:00 PM 46.4 °F 41.1 °F 21.2 °F 37% 30.42 in - NW 11.5 mph - N/A   Clear
3:30 PM 46.4 °F 41.5 °F 21.2 °F 37% 30.42 in - Variable 10.4 mph - N/A   Clear
4:00 PM 45 °F - 20 °F 24% 30.46 in 31 mi North 11.2 mph - -  
4:00 PM 44.6 °F 39.2 °F 19.4 °F 37% 30.45 in - North 10.4 mph - N/A   Clear
4:30 PM 44.6 °F 38.4 °F 19.4 °F 37% 30.45 in - NNW 12.7 mph - N/A   Clear
5:00 PM 42.8 °F 39.3 °F 19.4 °F 39% 30.45 in - Variable 5.8 mph - N/A   Clear
5:30 PM 42.8 °F 35.8 °F 19.4 °F 39% 30.48 in - NNW 13.8 mph - N/A   Clear
6:00 PM 42.8 °F 35.4 °F 19.4 °F 39% 30.48 in - NNW 15.0 mph - N/A   Clear
6:30 PM 42.8 °F 35.8 °F 21.2 °F 42% 30.48 in - NNW 13.8 mph - N/A   Clear
7:00 PM 42 °F - 20 °F 28% 30.52 in 31 mi North 6.7 mph - -  
7:00 PM 42.8 °F 38.6 °F 21.2 °F 42% 30.48 in - North 6.9 mph - N/A   Clear
7:30 PM 41.0 °F 34.7 °F 21.2 °F 45% 30.48 in - North 10.4 mph - N/A   Clear
8:00 PM 41.0 °F 33.1 °F 21.2 °F 45% 30.48 in - NNE 15.0 mph - N/A   Clear
8:30 PM 41.0 °F 32.2 °F 21.2 °F 45% 30.48 in - NNE 18.4 mph - N/A   Clear
9:00 PM 41.0 °F 31.9 °F 21.2 °F 45% 30.48 in - NNE 19.6 mph - N/A   Clear
9:30 PM 41.0 °F 32.2 °F 23.0 °F 49% 30.48 in - NNE 18.4 mph - N/A   Clear
10:00 PM 41 °F - 23 °F 35% 30.52 in 19 mi NNE 17.9 mph - -  
10:00 PM 41.0 °F 32.2 °F 23.0 °F 49% 30.48 in - NNE 18.4 mph - N/A   Clear
10:30 PM 41.0 °F 37.1 °F 23.0 °F 49% 30.51 in - Variable 5.8 mph - N/A   Clear
11:00 PM 41.0 °F 35.8 °F 23.0 °F 49% 30.51 in - North 8.1 mph - N/A   Clear
11:30 PM 42.8 °F 36.6 °F 24.8 °F 49% 30.51 in - North 11.5 mph - N/A   Clear